Time,TemperatureF,DewpointF,PressureIn,WindDirection,WindDirectionDegrees,WindSpeedMPH,WindSpeedGustMPH,Humidity,HourlyPrecipIn,Conditions,Clouds,dailyrainin,SoftwareType,DateUTC
2013-08-23 00:00:00,65.0,63.2,18.34,South,189,0.0,0.0,94,0.00,,,0.00,Wunderground v.1.15,2013-08-23 04:00:00,
2013-08-23 00:05:00,64.9,63.1,18.34,South,189,0.0,0.0,94,0.00,,,0.00,Wunderground v.1.15,2013-08-23 04:05:00,
2013-08-23 00:10:00,64.8,63.0,18.34,South,189,0.0,0.0,94,0.00,,,0.00,Wunderground v.1.15,2013-08-23 04:10:00,
2013-08-23 00:15:00,64.7,62.9,18.34,South,189,0.0,0.0,94,0.00,,,0.00,Wunderground v.1.15,2013-08-23 04:15:00,
2013-08-23 00:20:00,64.5,62.7,18.34,South,189,0.0,0.0,94,0.00,,,0.00,Wunderground v.1.15,2013-08-23 04:20:00,
2013-08-23 00:25:00,64.4,62.6,18.34,South,189,0.0,0.0,94,0.00,,,0.00,Wunderground v.1.15,2013-08-23 04:25:00,
2013-08-23 00:35:00,64.2,62.4,18.34,South,189,0.0,0.0,94,0.00,,,0.00,Wunderground v.1.15,2013-08-23 04:35:00,
2013-08-23 00:40:00,64.1,62.3,18.34,South,189,0.0,0.0,94,0.00,,,0.00,Wunderground v.1.15,2013-08-23 04:40:00,
2013-08-23 00:45:00,63.9,62.1,18.34,South,189,0.0,0.0,94,0.00,,,0.00,Wunderground v.1.15,2013-08-23 04:45:00,
2013-08-23 00:50:00,63.6,61.8,18.34,South,189,0.0,0.0,94,0.00,,,0.00,Wunderground v.1.15,2013-08-23 04:50:00,
2013-08-23 00:55:00,63.3,61.5,18.34,South,189,0.0,0.0,94,0.00,,,0.00,Wunderground v.1.15,2013-08-23 04:55:00,
2013-08-23 01:00:00,63.4,61.6,18.34,South,189,0.0,0.0,94,0.00,,,0.00,Wunderground v.1.15,2013-08-23 05:00:00,
2013-08-23 01:10:00,63.4,61.6,18.34,South,189,0.0,0.0,94,0.00,,,0.00,Wunderground v.1.15,2013-08-23 05:10:00,
2013-08-23 01:15:00,63.1,61.3,18.34,South,189,0.0,0.0,94,0.00,,,0.00,Wunderground v.1.15,2013-08-23 05:15:00,
2013-08-23 01:20:00,63.1,61.3,18.34,South,189,0.0,0.0,94,0.00,,,0.00,Wunderground v.1.15,2013-08-23 05:20:00,
2013-08-23 01:25:00,63.0,61.2,18.34,South,189,0.0,0.0,94,0.00,,,0.00,Wunderground v.1.15,2013-08-23 05:25:00,
2013-08-23 01:30:00,62.9,61.1,18.34,South,189,0.0,0.0,94,0.00,,,0.00,Wunderground v.1.15,2013-08-23 05:30:00,
2013-08-23 01:40:00,63.1,61.3,18.34,South,189,0.0,0.0,94,0.00,,,0.00,Wunderground v.1.15,2013-08-23 05:40:00,
2013-08-23 01:45:00,63.3,61.5,18.34,South,190,0.0,0.0,94,0.00,,,0.00,Wunderground v.1.15,2013-08-23 05:45:00,
2013-08-23 01:50:00,63.7,61.9,18.34,SW,234,1.0,4.0,94,0.00,,,0.00,Wunderground v.1.15,2013-08-23 05:50:00,
2013-08-23 01:55:00,64.3,62.5,18.34,WSW,241,3.0,6.0,94,0.00,,,0.00,Wunderground v.1.15,2013-08-23 05:55:00,
2013-08-23 02:00:00,64.5,62.7,18.34,WSW,247,4.0,4.0,94,0.00,,,0.00,Wunderground v.1.15,2013-08-23 06:00:00,
2013-08-23 02:10:00,64.8,63.0,18.34,WSW,249,3.0,3.0,94,0.00,,,0.00,Wunderground v.1.15,2013-08-23 06:10:00,
2013-08-23 02:20:00,64.8,63.0,18.34,WSW,249,2.0,4.0,94,0.00,,,0.00,Wunderground v.1.15,2013-08-23 06:20:00,
2013-08-23 02:25:00,64.8,63.0,18.34,WSW,251,3.0,4.0,94,0.00,,,0.00,Wunderground v.1.15,2013-08-23 06:25:00,
2013-08-23 02:30:00,64.8,63.0,18.34,WSW,254,4.0,6.0,94,0.00,,,0.00,Wunderground v.1.15,2013-08-23 06:30:00,
2013-08-23 02:40:00,64.9,63.1,18.34,WSW,254,4.0,4.0,94,0.00,,,0.00,Wunderground v.1.15,2013-08-23 06:40:00,
2013-08-23 02:45:00,64.8,63.0,18.34,WSW,253,3.0,4.0,94,0.00,,,0.00,Wunderground v.1.15,2013-08-23 06:45:00,
2013-08-23 02:50:00,64.7,62.9,18.34,WSW,253,2.0,2.0,94,0.00,,,0.00,Wunderground v.1.15,2013-08-23 06:50:00,
2013-08-23 02:55:00,64.8,63.0,18.34,WSW,252,3.0,3.0,94,0.00,,,0.00,Wunderground v.1.15,2013-08-23 06:55:00,
2013-08-23 03:00:00,64.7,62.9,18.34,WSW,255,3.0,5.0,94,0.00,,,0.00,Wunderground v.1.15,2013-08-23 07:00:00,
2013-08-23 03:10:00,64.5,62.7,18.34,WSW,254,2.0,4.0,94,0.00,,,0.00,Wunderground v.1.15,2013-08-23 07:10:00,
2013-08-23 03:15:00,64.4,62.6,18.34,WSW,254,1.0,4.0,94,0.00,,,0.00,Wunderground v.1.15,2013-08-23 07:15:00,
2013-08-23 03:20:00,64.2,62.4,18.34,WSW,254,1.0,1.0,94,0.00,,,0.00,Wunderground v.1.15,2013-08-23 07:20:00,
2013-08-23 03:25:00,64.1,62.3,18.34,WSW,254,1.0,6.0,94,0.00,,,0.00,Wunderground v.1.15,2013-08-23 07:25:00,
2013-08-23 03:35:00,63.8,62.0,18.34,WSW,256,2.0,8.0,94,0.00,,,0.00,Wunderground v.1.15,2013-08-23 07:35:00,
2013-08-23 03:45:00,63.6,61.8,18.34,WSW,256,3.0,5.0,94,0.00,,,0.00,Wunderground v.1.15,2013-08-23 07:45:00,
2013-08-23 03:50:00,63.5,61.7,18.34,WSW,255,2.0,8.0,94,0.00,,,0.00,Wunderground v.1.15,2013-08-23 07:50:00,
2013-08-23 03:55:00,63.4,61.6,18.34,West,261,2.0,8.0,94,0.00,,,0.00,Wunderground v.1.15,2013-08-23 07:55:00,
2013-08-23 04:00:00,63.3,61.5,18.34,West,270,3.0,6.0,94,0.00,,,0.00,Wunderground v.1.15,2013-08-23 08:00:00,
2013-08-23 04:10:00,63.1,61.0,18.34,West,262,4.0,5.0,93,0.00,,,0.00,Wunderground v.1.15,2013-08-23 08:10:00,
2013-08-23 04:20:00,62.8,60.7,18.34,WSW,258,4.0,4.0,93,0.00,,,0.00,Wunderground v.1.15,2013-08-23 08:20:00,
2013-08-23 04:25:00,62.6,60.5,18.34,WSW,257,3.0,4.0,93,0.00,,,0.00,Wunderground v.1.15,2013-08-23 08:25:00,
2013-08-23 04:30:00,62.5,60.4,18.34,WSW,257,2.0,2.0,93,0.00,,,0.00,Wunderground v.1.15,2013-08-23 08:30:00,
2013-08-23 04:35:00,62.4,60.3,18.34,WSW,256,2.0,4.0,93,0.00,,,0.00,Wunderground v.1.15,2013-08-23 08:35:00,
2013-08-23 04:40:00,62.3,59.9,18.34,West,260,2.0,2.0,92,0.00,,,0.00,Wunderground v.1.15,2013-08-23 08:40:00,
2013-08-23 04:50:00,62.0,59.6,18.34,WSW,257,2.0,2.0,92,0.00,,,0.00,Wunderground v.1.15,2013-08-23 08:50:00,
2013-08-23 04:55:00,61.9,59.5,18.34,WSW,257,2.0,6.0,92,0.00,,,0.00,Wunderground v.1.15,2013-08-23 08:55:00,
2013-08-23 05:00:00,61.8,59.5,18.34,WSW,256,3.0,5.0,92,0.00,,,0.00,Wunderground v.1.15,2013-08-23 09:00:00,
2013-08-23 05:10:00,61.6,58.9,18.34,WSW,253,2.0,2.0,91,0.00,,,0.00,Wunderground v.1.15,2013-08-23 09:10:00,
2013-08-23 05:15:00,61.5,58.8,18.34,WSW,253,3.0,3.0,91,0.00,,,0.00,Wunderground v.1.15,2013-08-23 09:15:00,
2013-08-23 05:20:00,61.4,58.4,18.34,WSW,253,2.0,2.0,90,0.00,,,0.00,Wunderground v.1.15,2013-08-23 09:20:00,
2013-08-23 05:25:00,61.4,58.4,18.34,WSW,253,1.0,2.0,90,0.00,,,0.00,Wunderground v.1.15,2013-08-23 09:25:00,
2013-08-23 05:30:00,61.3,58.3,18.34,WSW,253,0.0,0.0,90,0.00,,,0.00,Wunderground v.1.15,2013-08-23 09:30:00,
2013-08-23 05:35:00,61.1,58.1,18.34,WSW,253,0.0,0.0,90,0.00,,,0.00,Wunderground v.1.15,2013-08-23 09:35:00,
2013-08-23 05:40:00,60.9,57.6,18.34,WSW,253,0.0,0.0,89,0.00,,,0.00,Wunderground v.1.15,2013-08-23 09:40:00,
2013-08-23 05:45:00,60.6,57.7,18.34,WSW,253,0.0,0.0,90,0.00,,,0.00,Wunderground v.1.15,2013-08-23 09:45:00,
2013-08-23 05:50:00,60.4,57.5,18.34,WSW,253,0.0,0.0,90,0.00,,,0.00,Wunderground v.1.15,2013-08-23 09:50:00,
2013-08-23 06:00:00,59.2,56.3,18.34,WSW,253,0.0,0.0,90,0.00,,,0.00,Wunderground v.1.15,2013-08-23 10:00:00,
2013-08-23 06:10:00,58.5,55.9,18.34,WSW,253,0.0,0.0,91,0.00,,,0.00,Wunderground v.1.15,2013-08-23 10:10:00,
2013-08-23 06:15:00,58.4,56.1,18.34,WSW,253,0.0,0.0,92,0.00,,,0.00,Wunderground v.1.15,2013-08-23 10:15:00,
2013-08-23 06:20:00,58.4,56.1,18.34,WSW,253,0.0,0.0,92,0.00,,,0.00,Wunderground v.1.15,2013-08-23 10:20:00,
2013-08-23 06:25:00,58.4,56.4,18.34,WSW,253,0.0,0.0,93,0.00,,,0.00,Wunderground v.1.15,2013-08-23 10:25:00,
2013-08-23 06:35:00,58.7,56.7,18.34,WSW,253,0.0,7.0,93,0.00,,,0.00,Wunderground v.1.15,2013-08-23 10:35:00,
2013-08-23 06:40:00,58.7,56.7,18.34,WSW,253,0.0,7.0,93,0.00,,,0.00,Wunderground v.1.15,2013-08-23 10:40:00,
2013-08-23 06:45:00,58.7,56.7,18.34,WSW,253,0.0,7.0,93,0.00,,,0.00,Wunderground v.1.15,2013-08-23 10:45:00,
2013-08-23 06:50:00,58.8,57.1,18.34,WSW,253,0.0,7.0,94,0.00,,,0.00,Wunderground v.1.15,2013-08-23 10:50:00,
2013-08-23 06:55:00,59.0,57.3,18.34,WSW,253,0.0,7.0,94,0.00,,,0.00,Wunderground v.1.15,2013-08-23 10:55:00,
2013-08-23 07:00:00,58.8,56.8,18.34,WSW,253,0.0,0.0,93,0.00,,,0.00,Wunderground v.1.15,2013-08-23 11:00:00,
2013-08-23 07:10:00,58.7,57.0,18.34,WSW,253,0.0,0.0,94,0.00,,,0.00,Wunderground v.1.15,2013-08-23 11:10:00,
2013-08-23 07:15:00,58.7,57.0,18.34,WSW,253,0.0,0.0,94,0.00,,,0.00,Wunderground v.1.15,2013-08-23 11:15:00,
2013-08-23 07:20:00,59.1,57.4,18.34,WSW,253,0.0,0.0,94,0.00,,,0.00,Wunderground v.1.15,2013-08-23 11:20:00,
2013-08-23 07:25:00,59.6,57.9,18.34,WSW,253,0.0,0.0,94,0.00,,,0.00,Wunderground v.1.15,2013-08-23 11:25:00,
2013-08-23 07:35:00,60.2,58.5,18.34,WSW,253,0.0,0.0,94,0.00,,,0.00,Wunderground v.1.15,2013-08-23 11:35:00,
2013-08-23 07:40:00,60.4,58.7,18.34,WSW,253,0.0,0.0,94,0.00,,,0.00,Wunderground v.1.15,2013-08-23 11:40:00,
2013-08-23 07:45:00,60.7,59.0,18.34,WSW,253,0.0,0.0,94,0.00,,,0.00,Wunderground v.1.15,2013-08-23 11:45:00,
2013-08-23 07:50:00,60.9,59.2,18.34,WSW,253,0.0,0.0,94,0.00,,,0.00,Wunderground v.1.15,2013-08-23 11:50:00,
2013-08-23 07:55:00,61.2,59.2,18.34,WSW,253,0.0,0.0,93,0.00,,,0.00,Wunderground v.1.15,2013-08-23 11:55:00,
2013-08-23 08:00:00,61.3,59.3,18.34,WSW,253,0.0,0.0,93,0.00,,,0.00,Wunderground v.1.15,2013-08-23 12:00:00,
2013-08-23 08:10:00,61.6,59.3,18.34,WSW,253,0.0,2.0,92,0.00,,,0.00,Wunderground v.1.15,2013-08-23 12:10:00,
2013-08-23 08:15:00,61.8,59.5,18.34,WSW,257,1.0,5.0,92,0.00,,,0.00,Wunderground v.1.15,2013-08-23 12:15:00,
2013-08-23 08:20:00,61.9,59.5,18.34,WSW,257,2.0,4.0,92,0.00,,,0.00,Wunderground v.1.15,2013-08-23 12:20:00,
2013-08-23 08:25:00,62.1,59.7,18.34,WSW,257,2.0,4.0,92,0.00,,,0.00,Wunderground v.1.15,2013-08-23 12:25:00,
2013-08-23 08:30:00,62.0,59.3,18.34,West,260,1.0,1.0,91,0.00,,,0.00,Wunderground v.1.15,2013-08-23 12:30:00,
2013-08-23 08:45:00,61.9,58.9,18.34,West,271,1.0,1.0,90,0.00,,,0.00,Wunderground v.1.15,2013-08-23 12:45:00,
2013-08-23 08:55:00,62.2,59.2,18.34,West,267,1.0,1.0,90,0.00,,,0.00,Wunderground v.1.15,2013-08-23 12:55:00,
2013-08-23 09:00:00,62.4,59.1,18.34,West,267,0.0,0.0,89,0.00,,,0.00,Wunderground v.1.15,2013-08-23 13:00:00,
2013-08-23 09:10:00,63.0,59.1,18.34,SSW,210,0.0,0.0,87,0.00,,,0.00,Wunderground v.1.15,2013-08-23 13:10:00,
2013-08-23 09:20:00,63.5,58.9,18.34,WSW,255,1.0,1.0,85,0.00,,,0.00,Wunderground v.1.15,2013-08-23 13:20:00,
2013-08-23 09:30:00,63.6,59.3,18.34,WSW,255,1.0,1.0,86,0.00,,,0.00,Wunderground v.1.15,2013-08-23 13:30:00,
2013-08-23 09:35:00,63.5,58.9,18.34,SSW,195,1.0,2.0,85,0.00,,,0.00,Wunderground v.1.15,2013-08-23 13:35:00,
2013-08-23 09:40:00,63.9,59.6,18.34,WSW,257,1.0,2.0,86,0.00,,,0.00,Wunderground v.1.15,2013-08-23 13:40:00,
2013-08-23 09:45:00,63.9,59.6,18.34,WSW,253,1.0,2.0,86,0.00,,,0.00,Wunderground v.1.15,2013-08-23 13:45:00,
2013-08-23 09:50:00,64.0,59.7,18.34,South,189,1.0,1.0,86,0.00,,,0.00,Wunderground v.1.15,2013-08-23 13:50:00,
2013-08-23 10:00:00,63.9,59.3,18.34,WSW,258,3.0,3.0,85,0.00,,,0.00,Wunderground v.1.15,2013-08-23 14:00:00,
2013-08-23 10:10:00,64.1,59.5,18.34,WSW,250,2.0,2.0,85,0.00,,,0.00,Wunderground v.1.15,2013-08-23 14:10:00,
2013-08-23 10:15:00,64.3,59.4,18.34,WSW,251,1.0,2.0,84,0.00,,,0.00,Wunderground v.1.15,2013-08-23 14:15:00,
2013-08-23 10:20:00,64.3,59.4,18.34,South,188,2.0,2.0,84,0.00,,,0.00,Wunderground v.1.15,2013-08-23 14:20:00,
2013-08-23 10:25:00,64.5,59.9,18.34,South,182,2.0,4.0,85,0.00,,,0.00,Wunderground v.1.15,2013-08-23 14:25:00,
2013-08-23 10:35:00,64.8,59.5,18.34,West,263,3.0,7.0,83,0.00,,,0.00,Wunderground v.1.15,2013-08-23 14:35:00,
2013-08-23 10:40:00,65.3,60.3,18.34,WSW,253,2.0,2.0,84,0.00,,,0.00,Wunderground v.1.15,2013-08-23 14:40:00,
2013-08-23 10:45:00,65.5,59.9,18.34,SW,230,2.0,3.0,82,0.00,,,0.00,Wunderground v.1.15,2013-08-23 14:45:00,
2013-08-23 10:50:00,65.7,59.4,18.34,WSW,247,2.0,2.0,80,0.00,,,0.00,Wunderground v.1.15,2013-08-23 14:50:00,
2013-08-23 10:55:00,65.8,58.7,18.34,South,170,1.0,5.0,78,0.00,,,0.00,Wunderground v.1.15,2013-08-23 14:55:00,
2013-08-23 11:00:00,66.0,59.3,18.34,South,186,2.0,4.0,79,0.00,,,0.00,Wunderground v.1.15,2013-08-23 15:00:00,
2013-08-23 11:10:00,66.2,59.8,18.34,WSW,256,2.0,2.0,80,0.00,,,0.00,Wunderground v.1.15,2013-08-23 15:10:00,
2013-08-23 11:15:00,66.3,59.6,18.34,South,176,2.0,2.0,79,0.00,,,0.00,Wunderground v.1.15,2013-08-23 15:15:00,
2013-08-23 11:20:00,66.2,59.5,18.34,South,178,2.0,2.0,79,0.00,,,0.00,Wunderground v.1.15,2013-08-23 15:20:00,
2013-08-23 11:25:00,66.4,59.3,18.34,SSE,149,2.0,4.0,78,0.00,,,0.00,Wunderground v.1.15,2013-08-23 15:25:00,
2013-08-23 11:30:00,66.6,58.8,18.34,South,181,3.0,3.0,76,0.00,,,0.00,Wunderground v.1.15,2013-08-23 15:30:00,
2013-08-23 11:35:00,67.0,59.2,18.34,South,176,3.0,10.0,76,0.00,,,0.00,Wunderground v.1.15,2013-08-23 15:35:00,
2013-08-23 11:40:00,67.1,58.5,18.34,South,186,2.0,2.0,74,0.00,,,0.00,Wunderground v.1.15,2013-08-23 15:40:00,
2013-08-23 11:45:00,67.2,58.2,18.34,WSW,257,2.0,10.0,73,0.00,,,0.00,Wunderground v.1.15,2013-08-23 15:45:00,
2013-08-23 11:50:00,67.6,59.8,18.34,SSW,209,2.0,10.0,76,0.00,,,0.00,Wunderground v.1.15,2013-08-23 15:50:00,
2013-08-23 11:55:00,67.8,59.2,18.34,SSE,168,2.0,10.0,74,0.00,,,0.00,Wunderground v.1.15,2013-08-23 15:55:00,
2013-08-23 12:00:00,68.1,58.7,18.34,WSW,253,2.0,2.0,72,0.00,,,0.00,Wunderground v.1.15,2013-08-23 16:00:00,
2013-08-23 12:10:00,68.4,59.8,18.34,South,189,2.0,5.0,74,0.00,,,0.00,Wunderground v.1.15,2013-08-23 16:10:00,
2013-08-23 12:15:00,68.5,59.9,18.34,SW,224,3.0,5.0,74,0.00,,,0.00,Wunderground v.1.15,2013-08-23 16:15:00,
2013-08-23 12:20:00,68.6,60.0,18.34,SW,220,2.0,2.0,74,0.00,,,0.00,Wunderground v.1.15,2013-08-23 16:20:00,
2013-08-23 12:25:00,69.0,60.4,18.34,South,172,1.0,4.0,74,0.00,,,0.00,Wunderground v.1.15,2013-08-23 16:25:00,
2013-08-23 12:35:00,69.0,58.8,18.34,SSW,192,3.0,8.0,70,0.00,,,0.00,Wunderground v.1.15,2013-08-23 16:35:00,
2013-08-23 12:40:00,69.3,60.3,18.34,South,172,3.0,3.0,73,0.00,,,0.00,Wunderground v.1.15,2013-08-23 16:40:00,
2013-08-23 12:45:00,69.7,61.0,18.34,South,179,2.0,4.0,74,0.00,,,0.00,Wunderground v.1.15,2013-08-23 16:45:00,
2013-08-23 12:55:00,69.8,61.1,18.34,South,183,2.0,3.0,74,0.00,,,0.00,Wunderground v.1.15,2013-08-23 16:55:00,
2013-08-23 13:00:00,69.9,61.6,18.34,SSW,205,2.0,2.0,75,0.00,,,0.00,Wunderground v.1.15,2013-08-23 17:00:00,
2013-08-23 13:10:00,70.6,60.3,18.34,SSW,197,1.0,1.0,70,0.00,,,0.00,Wunderground v.1.15,2013-08-23 17:10:00,
2013-08-23 13:15:00,70.6,59.9,18.34,SSW,199,2.0,2.0,69,0.00,,,0.00,Wunderground v.1.15,2013-08-23 17:15:00,
2013-08-23 13:20:00,70.7,59.6,18.34,SW,219,2.0,3.0,68,0.00,,,0.00,Wunderground v.1.15,2013-08-23 17:20:00,
2013-08-23 13:25:00,70.8,59.7,18.34,SW,236,2.0,3.0,68,0.00,,,0.00,Wunderground v.1.15,2013-08-23 17:25:00,
2013-08-23 13:30:00,70.4,59.7,18.34,East,82,2.0,7.0,69,0.00,,,0.00,Wunderground v.1.15,2013-08-23 17:30:00,
2013-08-23 13:40:00,71.3,60.6,18.34,SW,223,2.0,2.0,69,0.00,,,0.00,Wunderground v.1.15,2013-08-23 17:40:00,
2013-08-23 13:45:00,71.5,60.0,18.34,SW,228,1.0,2.0,67,0.00,,,0.00,Wunderground v.1.15,2013-08-23 17:45:00,
2013-08-23 13:50:00,70.7,58.4,18.34,SSE,149,2.0,5.0,65,0.00,,,0.00,Wunderground v.1.15,2013-08-23 17:50:00,
2013-08-23 13:55:00,70.2,59.1,18.34,South,182,4.0,5.0,68,0.00,,,0.00,Wunderground v.1.15,2013-08-23 17:55:00,
2013-08-23 14:00:00,70.3,58.8,18.34,SSW,199,3.0,3.0,67,0.00,,,0.00,Wunderground v.1.15,2013-08-23 18:00:00,
2013-08-23 14:10:00,70.1,59.5,18.34,SSW,195,3.0,3.0,69,0.00,,,0.00,Wunderground v.1.15,2013-08-23 18:10:00,
2013-08-23 14:20:00,70.4,58.5,18.34,SSE,166,3.0,3.0,66,0.00,,,0.00,Wunderground v.1.15,2013-08-23 18:20:00,
2013-08-23 14:25:00,70.7,59.6,18.34,South,172,3.0,5.0,68,0.00,,,0.00,Wunderground v.1.15,2013-08-23 18:25:00,
2013-08-23 14:30:00,70.4,58.9,18.34,South,190,4.0,6.0,67,0.00,,,0.00,Wunderground v.1.15,2013-08-23 18:30:00,
2013-08-23 14:35:00,70.1,59.0,18.34,SSW,199,3.0,6.0,68,0.00,,,0.00,Wunderground v.1.15,2013-08-23 18:35:00,
2013-08-23 14:40:00,70.2,58.7,18.34,SSW,199,3.0,5.0,67,0.00,,,0.00,Wunderground v.1.15,2013-08-23 18:40:00,
2013-08-23 14:50:00,71.1,60.0,18.34,SW,219,2.0,5.0,68,0.00,,,0.00,Wunderground v.1.15,2013-08-23 18:50:00,
2013-08-23 14:55:00,71.3,60.2,18.34,South,174,3.0,5.0,68,0.00,,,0.00,Wunderground v.1.15,2013-08-23 18:55:00,
2013-08-23 15:00:00,70.3,59.2,18.34,South,172,4.0,7.0,68,0.00,,,0.00,Wunderground v.1.15,2013-08-23 19:00:00,
2013-08-23 15:10:00,70.4,59.7,18.34,SSW,205,2.0,3.0,69,0.00,,,0.00,Wunderground v.1.15,2013-08-23 19:10:00,
2013-08-23 15:15:00,70.7,59.6,18.34,South,187,3.0,5.0,68,0.00,,,0.00,Wunderground v.1.15,2013-08-23 19:15:00,
2013-08-23 15:20:00,70.9,60.6,18.34,SSE,168,3.0,7.0,70,0.00,,,0.00,Wunderground v.1.15,2013-08-23 19:20:00,
2013-08-23 15:25:00,70.6,60.3,18.34,West,268,4.0,7.0,70,0.00,,,0.00,Wunderground v.1.15,2013-08-23 19:25:00,
2013-08-23 15:30:00,70.4,59.7,18.34,SSW,195,4.0,4.0,69,0.00,,,0.00,Wunderground v.1.15,2013-08-23 19:30:00,
2013-08-23 15:35:00,70.1,59.5,18.34,WSW,250,3.0,4.0,69,0.00,,,0.00,Wunderground v.1.15,2013-08-23 19:35:00,
2013-08-23 15:45:00,70.2,59.6,18.34,SW,215,4.0,5.0,69,0.00,,,0.00,Wunderground v.1.15,2013-08-23 19:45:00,
2013-08-23 15:55:00,70.5,59.8,18.34,South,176,3.0,9.0,69,0.00,,,0.00,Wunderground v.1.15,2013-08-23 19:55:00,
2013-08-23 16:00:00,70.1,59.0,18.34,South,185,3.0,3.0,68,0.00,,,0.00,Wunderground v.1.15,2013-08-23 20:00:00,
2013-08-23 16:10:00,70.2,60.4,18.34,West,260,2.0,6.0,71,0.00,,,0.00,Wunderground v.1.15,2013-08-23 20:10:00,
2013-08-23 16:15:00,70.3,59.6,18.34,SW,214,2.0,6.0,69,0.00,,,0.00,Wunderground v.1.15,2013-08-23 20:15:00,
2013-08-23 16:20:00,70.0,59.4,18.34,SSW,201,3.0,3.0,69,0.00,,,0.00,Wunderground v.1.15,2013-08-23 20:20:00,
2013-08-23 16:25:00,70.0,59.0,18.34,SW,236,2.0,3.0,68,0.00,,,0.00,Wunderground v.1.15,2013-08-23 20:25:00,
2013-08-23 16:30:00,69.9,59.3,18.34,WSW,238,2.0,2.0,69,0.00,,,0.00,Wunderground v.1.15,2013-08-23 20:30:00,
2013-08-23 16:35:00,69.7,60.3,18.34,WSW,253,3.0,11.0,72,0.00,,,0.00,Wunderground v.1.15,2013-08-23 20:35:00,
2013-08-23 16:40:00,69.3,59.5,18.34,WSW,249,3.0,5.0,71,0.00,,,0.00,Wunderground v.1.15,2013-08-23 20:40:00,
2013-08-23 16:45:00,68.9,59.1,18.34,WSW,248,4.0,5.0,71,0.00,,,0.00,Wunderground v.1.15,2013-08-23 20:45:00,
2013-08-23 16:55:00,68.8,59.0,18.34,South,169,2.0,3.0,71,0.00,,,0.00,Wunderground v.1.15,2013-08-23 20:55:00,
2013-08-23 17:00:00,68.8,58.6,18.34,WSW,247,2.0,2.0,70,0.00,,,0.00,Wunderground v.1.15,2013-08-23 21:00:00,
2013-08-23 17:10:00,68.7,58.9,18.34,South,184,2.0,4.0,71,0.00,,,0.00,Wunderground v.1.15,2013-08-23 21:10:00,
2013-08-23 17:15:00,68.7,58.9,18.34,SW,227,3.0,4.0,71,0.00,,,0.00,Wunderground v.1.15,2013-08-23 21:15:00,
2013-08-23 17:20:00,68.8,59.0,18.34,SW,228,2.0,2.0,71,0.00,,,0.00,Wunderground v.1.15,2013-08-23 21:20:00,
2013-08-23 17:25:00,69.0,59.6,18.34,West,262,1.0,6.0,72,0.00,,,0.00,Wunderground v.1.15,2013-08-23 21:25:00,
2013-08-23 17:35:00,68.5,58.3,18.34,South,175,2.0,9.0,70,0.00,,,0.00,Wunderground v.1.15,2013-08-23 21:35:00,
2013-08-23 17:40:00,68.4,57.0,18.34,South,176,3.0,3.0,67,0.00,,,0.00,Wunderground v.1.15,2013-08-23 21:40:00,
2013-08-23 17:45:00,68.2,57.6,18.34,SSW,210,3.0,3.0,69,0.00,,,0.00,Wunderground v.1.15,2013-08-23 21:45:00,
2013-08-23 17:55:00,68.1,58.3,18.34,South,184,1.0,6.0,71,0.00,,,0.00,Wunderground v.1.15,2013-08-23 21:55:00,
2013-08-23 18:00:00,67.9,58.5,18.34,SW,221,1.0,1.0,72,0.00,,,0.00,Wunderground v.1.15,2013-08-23 22:00:00,
2013-08-23 18:10:00,67.4,58.8,18.34,WSW,241,1.0,1.0,74,0.00,,,0.00,Wunderground v.1.15,2013-08-23 22:10:00,
2013-08-23 18:15:00,67.3,58.7,18.34,WSW,255,1.0,1.0,74,0.00,,,0.00,Wunderground v.1.15,2013-08-23 22:15:00,
2013-08-23 18:20:00,67.0,57.3,18.34,WSW,254,1.0,4.0,71,0.00,,,0.00,Wunderground v.1.15,2013-08-23 22:20:00,
2013-08-23 18:25:00,66.6,56.9,18.34,WSW,256,1.0,4.0,71,0.00,,,0.00,Wunderground v.1.15,2013-08-23 22:25:00,
2013-08-23 18:35:00,66.4,57.1,18.34,West,260,0.0,2.0,72,0.00,,,0.00,Wunderground v.1.15,2013-08-23 22:35:00,
2013-08-23 18:40:00,66.2,57.3,18.34,West,259,1.0,1.0,73,0.00,,,0.00,Wunderground v.1.15,2013-08-23 22:40:00,
2013-08-23 18:45:00,66.1,57.6,18.34,WSW,255,0.0,1.0,74,0.00,,,0.00,Wunderground v.1.15,2013-08-23 22:45:00,
2013-08-23 18:50:00,66.0,57.5,18.34,WSW,247,0.0,0.0,74,0.00,,,0.00,Wunderground v.1.15,2013-08-23 22:50:00,
2013-08-23 18:55:00,65.8,57.3,18.34,WSW,247,0.0,0.0,74,0.00,,,0.00,Wunderground v.1.15,2013-08-23 22:55:00,
2013-08-23 19:00:00,65.6,57.5,18.34,WSW,247,0.0,2.0,75,0.00,,,0.00,Wunderground v.1.15,2013-08-23 23:00:00,
2013-08-23 19:10:00,65.2,57.4,18.34,WSW,251,0.0,0.0,76,0.00,,,0.00,Wunderground v.1.15,2013-08-23 23:10:00,
2013-08-23 19:15:00,65.1,57.7,18.34,WSW,251,0.0,0.0,77,0.00,,,0.00,Wunderground v.1.15,2013-08-23 23:15:00,
2013-08-23 19:20:00,64.9,57.5,18.34,WSW,251,0.0,0.0,77,0.00,,,0.00,Wunderground v.1.15,2013-08-23 23:20:00,
2013-08-23 19:25:00,64.7,57.7,18.34,WSW,251,0.0,0.0,78,0.00,,,0.00,Wunderground v.1.15,2013-08-23 23:25:00,
2013-08-23 19:30:00,64.4,57.7,18.34,WSW,251,0.0,0.0,79,0.00,,,0.00,Wunderground v.1.15,2013-08-23 23:30:00,
2013-08-23 19:40:00,63.2,56.9,18.34,WSW,251,0.0,12.0,80,0.00,,,0.00,Wunderground v.1.15,2013-08-23 23:40:00,
2013-08-23 19:45:00,62.7,56.8,18.34,WSW,251,0.0,12.0,81,0.00,,,0.00,Wunderground v.1.15,2013-08-23 23:45:00,
2013-08-23 19:50:00,62.3,56.4,18.34,WSW,251,0.0,12.0,81,0.00,,,0.00,Wunderground v.1.15,2013-08-23 23:50:00,
2013-08-23 19:55:00,62.0,56.4,18.34,WSW,251,0.0,12.0,82,0.00,,,0.00,Wunderground v.1.15,2013-08-23 23:55:00,
2013-08-23 20:00:00,61.8,56.6,18.34,WSW,251,0.0,0.0,83,0.00,,,0.00,Wunderground v.1.15,2013-08-24 00:00:00,
2013-08-23 20:10:00,61.3,56.4,18.34,WSW,251,0.0,0.0,84,0.00,,,0.00,Wunderground v.1.15,2013-08-24 00:10:00,
2013-08-23 20:15:00,61.0,56.5,18.34,WSW,251,0.0,0.0,85,0.00,,,0.00,Wunderground v.1.15,2013-08-24 00:15:00,
2013-08-23 20:20:00,60.5,56.0,18.34,WSW,251,0.0,0.0,85,0.00,,,0.00,Wunderground v.1.15,2013-08-24 00:20:00,
2013-08-23 20:25:00,60.0,55.8,18.34,WSW,251,0.0,0.0,86,0.00,,,0.00,Wunderground v.1.15,2013-08-24 00:25:00,
2013-08-23 20:30:00,59.6,55.7,18.34,WSW,251,0.0,0.0,87,0.00,,,0.00,Wunderground v.1.15,2013-08-24 00:30:00,
2013-08-23 20:35:00,59.4,55.8,18.34,WSW,251,0.0,4.0,88,0.00,,,0.00,Wunderground v.1.15,2013-08-24 00:35:00,
2013-08-23 20:45:00,59.3,55.7,18.34,WSW,251,0.0,4.0,88,0.00,,,0.00,Wunderground v.1.15,2013-08-24 00:45:00,
2013-08-23 20:50:00,59.1,55.5,18.34,WSW,251,0.0,4.0,88,0.00,,,0.00,Wunderground v.1.15,2013-08-24 00:50:00,
2013-08-23 20:55:00,58.9,55.7,18.34,WSW,251,0.0,4.0,89,0.00,,,0.00,Wunderground v.1.15,2013-08-24 00:55:00,
2013-08-23 21:00:00,58.9,56.0,18.34,WSW,251,0.0,0.0,90,0.00,,,0.00,Wunderground v.1.15,2013-08-24 01:00:00,
2013-08-23 21:10:00,58.7,55.8,18.34,WSW,251,0.0,0.0,90,0.00,,,0.00,Wunderground v.1.15,2013-08-24 01:10:00,
2013-08-23 21:20:00,58.0,55.1,18.34,WSW,251,0.0,0.0,90,0.00,,,0.00,Wunderground v.1.15,2013-08-24 01:20:00,
2013-08-23 21:25:00,57.8,55.2,18.34,WSW,251,0.0,0.0,91,0.00,,,0.00,Wunderground v.1.15,2013-08-24 01:25:00,
2013-08-23 21:30:00,57.5,54.9,18.34,WSW,251,0.0,0.0,91,0.00,,,0.00,Wunderground v.1.15,2013-08-24 01:30:00,
2013-08-23 21:35:00,57.5,55.2,18.34,WSW,251,0.0,0.0,92,0.00,,,0.00,Wunderground v.1.15,2013-08-24 01:35:00,
2013-08-23 21:40:00,57.5,55.2,18.34,WSW,251,0.0,0.0,92,0.00,,,0.00,Wunderground v.1.15,2013-08-24 01:40:00,
2013-08-23 21:45:00,57.4,55.1,18.34,WSW,251,0.0,0.0,92,0.00,,,0.00,Wunderground v.1.15,2013-08-24 01:45:00,
2013-08-23 21:50:00,57.3,55.0,18.34,WSW,251,0.0,0.0,92,0.00,,,0.00,Wunderground v.1.15,2013-08-24 01:50:00,
2013-08-23 21:55:00,57.3,55.0,18.34,WSW,251,0.0,0.0,92,0.00,,,0.00,Wunderground v.1.15,2013-08-24 01:55:00,
2013-08-23 22:00:00,57.2,54.9,18.34,WSW,251,0.0,0.0,92,0.00,,,0.00,Wunderground v.1.15,2013-08-24 02:00:00,
2013-08-23 22:10:00,57.2,55.2,18.34,WSW,251,0.0,0.0,93,0.00,,,0.00,Wunderground v.1.15,2013-08-24 02:10:00,
2013-08-23 22:15:00,57.3,55.3,18.34,WSW,251,0.0,0.0,93,0.00,,,0.00,Wunderground v.1.15,2013-08-24 02:15:00,
2013-08-23 22:25:00,57.6,55.6,18.34,WSW,251,0.0,0.0,93,0.00,,,0.00,Wunderground v.1.15,2013-08-24 02:25:00,
2013-08-23 22:30:00,57.7,55.7,18.34,WSW,251,0.0,0.0,93,0.00,,,0.00,Wunderground v.1.15,2013-08-24 02:30:00,
2013-08-23 22:35:00,57.8,55.8,18.34,WSW,251,0.0,1.0,93,0.00,,,0.00,Wunderground v.1.15,2013-08-24 02:35:00,
2013-08-23 22:40:00,57.7,55.7,18.34,WSW,251,0.0,1.0,93,0.00,,,0.00,Wunderground v.1.15,2013-08-24 02:40:00,
2013-08-23 22:45:00,57.6,55.6,18.34,WSW,251,0.0,1.0,93,0.00,,,0.00,Wunderground v.1.15,2013-08-24 02:45:00,
2013-08-23 22:55:00,57.3,55.3,18.34,WSW,251,0.0,1.0,93,0.00,,,0.00,Wunderground v.1.15,2013-08-24 02:55:00,
2013-08-23 23:00:00,57.2,55.2,18.34,WSW,251,0.0,0.0,93,0.00,,,0.00,Wunderground v.1.15,2013-08-24 03:00:00,
2013-08-23 23:10:00,57.0,55.0,18.34,WSW,251,0.0,0.0,93,0.00,,,0.00,Wunderground v.1.15,2013-08-24 03:10:00,
2013-08-23 23:15:00,56.9,54.9,18.34,WSW,251,0.0,0.0,93,0.00,,,0.00,Wunderground v.1.15,2013-08-24 03:15:00,
2013-08-23 23:20:00,56.7,54.7,18.34,WSW,251,0.0,0.0,93,0.00,,,0.00,Wunderground v.1.15,2013-08-24 03:20:00,
2013-08-23 23:30:00,56.0,54.0,18.34,WSW,251,0.0,0.0,93,0.00,,,0.00,Wunderground v.1.15,2013-08-24 03:30:00,
2013-08-23 23:35:00,55.7,53.7,18.34,WSW,251,0.0,1.0,93,0.00,,,0.00,Wunderground v.1.15,2013-08-24 03:35:00,
2013-08-23 23:40:00,55.4,53.4,18.34,WSW,251,0.0,1.0,93,0.00,,,0.00,Wunderground v.1.15,2013-08-24 03:40:00,
2013-08-23 23:45:00,55.2,53.2,18.34,WSW,251,0.0,1.0,93,0.00,,,0.00,Wunderground v.1.15,2013-08-24 03:45:00,
2013-08-23 23:50:00,55.0,53.0,18.34,WSW,251,0.0,1.0,93,0.00,,,0.00,Wunderground v.1.15,2013-08-24 03:50:00,
2013-08-23 23:55:00,54.9,53.2,18.34,WSW,251,0.0,1.0,94,0.00,,,0.00,Wunderground v.1.15,2013-08-24 03:55:00,